Location: Dittelspoint
(48.7198°N, 10.7214°E)
Time: 01:04:06
(UTC+00:00)

APEX - Pass Details

Date: 09 April 2020
Orbit: 331 x 1113 km, 69.9° (Epoch: 30 May)

Event Time Altitude Azimuth Distance (km) Brightness Sun altitude
Rises 18:29:13 0° 329° (NNW) 3,837 8.5 -5.4°
Reaches altitude 10° 18:32:03 10° 330° (NNW) 2,802 7.7 -5.9°
Maximum altitude 18:38:40 87° 61° (ENE) 890 4.3 -6.9°
Drops below altitude 10° 18:43:59 10° 150° (SSE) 2,278 6.0 -7.7°
Enters shadow 18:45:31 - 151° (SSE) 2,861 6.5 -7.9°
